SL-8 R/B

Satellite information

Favourite Embed

Satellite Type and Status

ROCKET BODYIN ORBIT

Key statistics

Satellite SL-8 R/B at a glance.

Uptime

18783

Days in orbit

Revolutions

≈ 14.4

Per day

Orbit

LEO

Low Earth Orbit

Inclination

74.1

Latest

Satellite identification and parameters

Extended collection of information and parameters for SL-8 R/B.

Object identification

Identified? True

Debris? False

Object name: SL-8 R/B

International designator: 1973-098B

Object number (NORAD): 6966

Object ID (CCSDS): 6966

Country: COMMONWEALTH OF INDEPENDENT STATES (CIS)

Current information (Y/N): Y

RCS size: LARGE

Orbital parameters

Period: 99.684 minutes

Inclination: 74.0543 deg

SMA: 7121.595 km

Apoapsis: 758.856 km

Periapsis: 728.064 km

RAAN: 275.0762 deg

Eccentricy: 0.0021619

Argument of periapsis: 244.6881 deg

Mean anomaly: 115.2037 deg

Mean motion: 14.44564309 rev/day

Mean motion (dot): 0.00000431 rev/day2

B* drag term: 0.00013193 1/REarth

Two-line elements (TLE)

Creation date: May 8, 2025, 3:01 a.m.

Reference frame: TEME

Reference center: EARTH

Epoch: May 7, 2025, 8:31 p.m. UTC

TLE line 0: 0 SL-8 R/B

TLE line 1: 1 06966U 73098B 25127.85548182 .00000431 00000-0 13193-3 0 9990

TLE line 2: 2 06966 74.0543 275.0762 0021619 244.6881 115.2037 14.44564309700920

Live tracking on map

Real-time ground track for satellite SL-8 R/B.

In-orbit conjunctions

A list of the most updated potential collisions computed for object SL-8 R/B.

Target Orbit TCA Probability of collision Miss distance Type
ARIANE 5 DEB (SYLDA) GTO 2025-02-03 12:44:49 0.0002064393 198.0 (m) DEBRIS
CZ-4 DEB SSO 2024-11-08 01:39:44 0.0004719199 111.0 (m) DEBRIS
SL-8 R/B LEO 2024-09-27 01:29:02 0.00169711 359.0 (m) ROCKET BODY
COSMOS 2251 DEB LEO 2024-07-28 20:26:32 0.0001185669 588.0 (m) DEBRIS

Associated space launch

Military communications satellite

SL-8 R/B was lifted into orbit during the mission ‘Kosmos-3M | Strela-2M 8’, on board a Kosmos-3M space rocket.

The launch took place on Dec. 4, 1973, 3 p.m. from 132/2.

For more information about the launch, click the button.

Launch to space Kosmos-3M | Strela-2M 8
Kosmos-3M | Strela-2M 8

Agency: N/A

Status: Launch Successful

Launch date: Dec. 4, 1973, 3 p.m. UTC

Rocket: Kosmos-3M

Launch pad: 132/2

Location: Plesetsk Cosmodrome, Russian Federation

...

Latest news about this satellite

There are no fresh news available about this satellite. Check back as we update our databases every day.


Newsletter sign-up

Weekly statistics, charts and insights to help you stay on top of the space industry.